Regional Weather Roundup
Issued by NWS

Home | Current Version | Previous Version | Text Only | Print | Product List | Glossary On
Versions: 1 2 3 4 5 6 7 8 9 10 11 12 13 14 15 16 17 18 19 20 21 22 23 24 25 26 27 28 29 30 31 32 33 34 35 36 37 38 39 40 41 42 43 44 45 46 47 48 49 50
000
ASUS45 KPSR 172010
RWRAZ

ARIZONA HOURLY REGIONAL WEATHER ROUNDUP
NATIONAL WEATHER SERVICE PHOENIX AZ
100 PM MST SUN DEC 17 2017

NOTE: FAIR INDICATES FEW OR NO CLOUDS BELOW 12,000 FEET WITH NO
SIGNIFICANT WEATHER AND/OR OBSTRUCTIONS TO VISIBILITY.

AZZ001>003-036-172100-
NORTHWEST ARIZONA

CITY           SKY/WX    TMP DP  RH WIND       PRES   REMARKS
BULLHEAD CITY  SUNNY     59  21  23 N32G40    29.97F
KINGMAN        SUNNY     51  20  29 N12       30.00F
$$

AZZ004>008-015-016-018-172100-
NORTH CENTRAL ARIZONA

CITY           SKY/WX    TMP DP  RH WIND       PRES   REMARKS
GRAND CANYON   SUNNY     45   9  23 NE9       30.00F
WILLIAMS       SUNNY     48  10  21 E7        29.94F
PRESCOTT       MOSUNNY   50  23  34 VRB3      29.94F
FLAGSTAFF      SUNNY     43  12  28 NE12      29.97F
PAYSON         SUNNY     50  30  46 VRB7      29.92F
PAGE           SUNNY     44  16  32 N3        30.04F
$$

AZZ009>014-017-172100-
NORTHEAST ARIZONA

CITY           SKY/WX    TMP DP  RH WIND       PRES   REMARKS
WINSLOW        PTSUNNY   47  11  23 NW5       29.99F
SAINT JOHNS    PTSUNNY   52  15  23 E10       29.94F
WINDOW ROCK    SUNNY     50  10  20 VRB6      29.97F
SHOW LOW       CLOUDY    46  19  34 NE10G17   29.97F
$$

AZZ540-542>544-546-548-172100-
GREATER PHOENIX AREA

CITY           SKY/WX    TMP DP  RH WIND       PRES   REMARKS
PHOENIX        PTSUNNY   60  46  59 E7        29.89F
BUCKEYE        SUNNY     61  57  88 E10       29.91F
GLENDALE       PTSUNNY   61  43  51 NE5       29.92F
LUKE AFB       SUNNY     62  41  46 E7        29.89F
DEER VALLEY    MOSUNNY   58  41  53 SE8       29.89F
SCOTTSDALE     MOSUNNY   60  42  51 SE7       29.91F
MESA-FALCON    PTSUNNY   61  39  44 NE7       29.91F
MESA-GATEWAY   PTSUNNY   55  18  22 SE3       29.91F
CHANDLER       CLOUDY    57  45  62 NE3       29.91F
$$

AZZ539-553-172100-
SOUTHWEST MARICOPA COUNTY AND PINAL COUNTY

CITY           SKY/WX    TMP DP  RH WIND       PRES   REMARKS
CASA GRANDE    NOT AVBL
GILA BEND      PTSUNNY   63  41  45 E8        29.89F
$$

AZZ503-504-507>509-172100-
SOUTHEAST ARIZONA

CITY           SKY/WX    TMP DP  RH WIND       PRES   REMARKS
TUCSON         CLOUDY    55  42  61 SE10      29.92F
DAVIS-MONTHAN  PTSUNNY   54  50  87 E7        29.90F
RYAN FIELD     PTSUNNY   54  46  76 E10       29.92F
NOGALES        PTSUNNY   49  45  86 MISG      29.91F
SIERRA VISTA   PTSUNNY   49  38  66 E12       29.94F
DOUGLAS        PTSUNNY   44  41  89 SE21      29.97F
SAFFORD        LGT RAIN  47  41  80 SE9       29.98S
$$

AZZ532-172100-
SOUTHWEST ARIZONA

CITY           SKY/WX    TMP DP  RH WIND       PRES   REMARKS
YUMA           MOSUNNY   66  26  22 N14       29.92F
$$

CAZ041-043-047-048-061-525>527-560>570-172100-
SOUTHERN CALIFORNIA

CITY           SKY/WX    TMP DP  RH WIND       PRES   REMARKS
DOWNTOWN L.A.  SUNNY     70  21  15 CALM      29.91S
L.A. AIRPORT   MOSUNNY   70  19  14 W7        29.92S
SAN DIEGO      SUNNY     68  34  28 W5        29.90F
BURBANK        SUNNY     69  21  16 N15       29.91F
ONTARIO        MOSUNNY   68  19  15 NE17G29   29.91F
RIVERSIDE      SUNNY     64  20  18 N16G24    29.93F
PALM SPRINGS   SUNNY     68  18  14 N7        30.00F
EL CENTRO NAS  SUNNY     68  24  19 NW16      29.96F
IMPERIAL       SUNNY     68  21  16 NW12      29.93F
BLYTHE         MOSUNNY   65  23  20 N20G25    29.95F
NEEDLES        SUNNY     62  21  20 N33G39    29.98F
$$

NVZ020-UTZ003-172100-
SOUTHERN NEVADA-UTAH

CITY           SKY/WX    TMP DP  RH WIND       PRES   REMARKS
LAS VEGAS      SUNNY     54  18  24 N12G21    30.06F
SALT LAKE CITY MOSUNNY   36  25  64 NW7       30.22R WCI  30
$$

NMZ009-TXZ055-172100-
NEW MEXICO-WEST TEXAS

CITY           SKY/WX    TMP DP  RH WIND       PRES   REMARKS
ALBUQUERQUE    MOSUNNY   49  12  22 CALM      30.00F
EL PASO        CLOUDY    53  36  52 CALM      29.98F
$$


........................KEY........................
SKY/WX - SKY CONDITION/WEATHER
TMP    - TEMPERATURE IN FAHRENHEIT
DP     - DEW POINT IN FAHRENHEIT
RH     - RELATIVE HUMIDITY IN PERCENT
WIND   - DIRECTION AND SPEED IN MILES PER HOUR (MPH)
VRB    - VARIABLE WIND DIRECTION
PRES   - MEAN SEA LEVEL PRESSURE IN INCHES OF MERCURY
         F - FALLING PRESSURE   R - RISING PRESSURE
         S - STEADY PRESSURE
VSB    - VISIBILITY IN MILES
HX     - HEAT INDEX IN FAHRENHEIT
WCI    - WIND CHILL INDEX IN FAHRENHEIT
TC     - TEMPERATURE IN CELSIUS WHICH IS ALSO KNOWN AS
         TEMPERATURE IN CENTIGRADE
AFB    - AIR FORCE BASE
         LUKE AFB IS LUKE AIR FORCE BASE
         DAVIS-MONTHAN IS DAVIS-MONTHAN AIR FORCE BASE
NAS    - NAVAL AIR STATION
         EL CENTRO NAS IS EL CENTRO NAVAL AIR STATION
N/A    - NOT AVAILABLE




USA.gov is the U.S. government's official web portal to all federal, state and local government web resources and services.